Theta_e
346 343 343 344 346 342 340 339 343 342 344 342 340 339 345 344 345 345 341 335 326 326 327 327 325 324 323 322 322 322 323 323 324 325 326 326 326 326 325 324 324 324 324
345 340 345 344 346 345 340 341 344 344 343 341 343 342 341 342 343 344 345 344 343 323 321 320 320 321 321 322 322 324 325 328 331 334 337 338 338 337 337 335 330 326 324
340 341 344 345 345 346 342 346 345 345 344 339 343 343 343 342 342 342 343 345 345 344 322 321 321 321 322 323 326 330 335 341 342 343 343 343 342 342 341 340 340 340 333
346 344 344 344 343 344 345 343 345 344 344 344 341 343 344 344 343 344 343 340 343 345 333 329 328 324 325 329 336 341 342 343 342 342 342 342 342 343 343 342 342 340 339
348 344 345 346 344 344 345 345 346 346 346 345 344 343 344 344 343 343 339 341 340 342 340 340 341 329 331 339 341 342 342 342 342 342 342 343 347 348 347 346 345 345 343
347 345 346 346 346 345 343 344 343 345 343 343 344 344 344 342 343 343 344 343 345 344 341 338 341 339 336 340 342 341 341 341 341 342 343 346 348 349 347 343 342 345 345
345 347 347 343 346 345 345 341 343 344 344 341 344 345 339 340 341 342 343 343 345 343 342 343 337 336 340 343 346 343 342 339 340 340 339 346 348 345 337 340 352 353 352
347 346 342 342 345 341 347 346 345 345 343 342 341 344 342 341 341 341 341 343 342 343 343 342 332 335 344 347 347 348 341 340 338 335 338 341 337 337 338 346 354 354 355
343 347 348 348 344 338 341 346 344 343 341 342 341 344 346 345 341 340 340 341 339 341 342 340 343 343 345 349 348 349 343 344 341 338 334 333 334 335 344 351 354 354 355
347 346 346 348 345 343 336 346 345 344 343 344 345 342 342 343 344 343 341 340 341 341 340 343 344 345 347 347 348 347 350 349 345 344 344 336 332 334 348 352 354 354 353
349 350 347 343 345 342 343 342 348 345 344 344 347 345 344 345 347 347 343 339 341 342 344 344 343 344 347 349 350 351 350 348 346 345 347 346 336 335 347 352 353 352 349
350 347 347 348 344 343 344 346 348 341 343 345 346 343 344 343 345 346 347 342 341 343 344 345 345 346 347 349 350 350 350 349 344 345 348 348 344 340 346 351 351 350 341
348 347 350 348 344 340 343 344 339 339 340 342 343 341 344 347 347 348 346 347 346 346 346 346 346 346 347 349 349 349 350 344 343 347 350 349 346 342 347 350 351 350 345
346 350 348 346 344 339 347 345 343 337 337 335 338 338 340 344 346 346 348 346 346 348 348 347 347 347 349 348 350 349 342 338 334 349 349 349 347 344 346 352 351 350 349
348 348 350 347 346 348 343 340 343 341 344 344 335 333 335 343 346 345 346 342 345 345 347 348 347 350 351 351 349 346 342 343 341 348 350 349 346 346 345 346 353 349 349
348 349 346 346 344 346 345 344 346 346 349 345 343 340 334 339 344 347 348 347 346 346 346 347 347 351 349 349 348 344 346 347 345 346 348 350 346 348 344 345 349 350 350
350 350 346 348 346 348 346 345 344 348 350 350 346 345 344 337 338 343 348 343 342 346 348 345 345 346 345 346 345 337 346 349 347 347 347 347 346 347 345 344 345 352 354
349 348 345 344 349 346 349 350 346 344 348 348 345 342 343 347 341 337 342 349 347 348 348 348 347 345 343 338 340 346 349 350 351 346 347 346 346 345 344 342 345 347 356
344 345 345 347 342 342 350 347 347 349 345 348 349 348 347 345 341 342 340 343 346 345 348 347 346 345 345 343 348 349 351 352 351 345 344 346 343 346 345 342 347 347 353
345 345 340 339 345 346 347 347 346 348 347 347 347 352 351 349 347 345 345 342 338 336 340 343 346 349 349 346 350 350 349 351 351 349 340 334 338 345 342 347 348 347 348
353 350 348 346 345 346 347 347 346 349 350 350 347 346 348 349 349 350 349 347 346 338 339 340 342 349 349 353 352 350 346 345 345 331 328 328 335 340 344 348 349 348 346
351 354 352 352 349 347 346 347 348 350 348 349 347 348 347 347 349 352 353 354 351 346 342 335 340 346 342 339 337 332 331 331 332 327 330 328 344 344 345 345 348 347 344
353 353 352 354 353 353 349 348 350 353 352 351 351 350 350 349 349 347 348 346 348 349 349 348 346 345 342 338 338 337 336 337 338 335 336 331 327 336 343 345 347 345 343
349 350 352 352 353 353 353 351 348 347 349 350 350 349 350 352 350 348 348 349 352 350 349 349 351 349 348 343 341 344 346 346 343 337 339 338 334 329 338 343 345 344 343
349 350 350 351 351 351 350 352 351 349 349 346 347 348 347 345 344 344 347 346 344 343 342 343 341 341 341 346 347 348 346 346 345 333 336 337 341 335 331 343 343 344 343
343 345 347 347 349 351 351 350 350 350 350 351 352 351 350 349 348 347 347 345 344 343 344 344 344 345 344 342 345 346 346 343 344 338 333 341 341 343 344 340 336 345 347
Wind_Speed
14 10 12 10 10 10 9 12 12 12 12 11 10 8 12 8 7 10 14 16 14 10 8 8 7 8 8 8 8 8 9 11 11 12 12 11 11 11 11 11 9 7 7
13 12 9 13 13 9 9 11 13 10 10 10 9 10 5 3 7 7 10 12 15 16 12 11 10 9 9 9 10 11 12 12 12 12 12 12 12 12 12 12 11 8 7
13 12 13 13 7 7 6 9 11 12 8 12 11 3 6 4 4 5 4 7 11 13 14 14 12 12 11 11 12 12 13 13 13 13 13 13 13 12 12 12 13 11 9
10 14 15 12 7 7 12 10 8 8 9 10 9 7 3 9 6 5 3 7 7 9 12 14 15 12 11 12 13 13 13 13 13 13 14 14 15 15 14 14 13 14 12
6 11 12 8 6 9 9 12 6 6 4 3 6 5 2 0 4 5 5 6 6 8 12 10 13 12 12 13 13 14 14 14 15 15 15 15 15 15 15 15 15 15 15
11 8 11 7 7 11 6 9 10 7 9 4 3 3 7 3 2 2 2 6 7 9 12 5 8 8 10 12 14 15 16 17 17 17 17 15 14 16 17 16 15 14 14
9 10 9 8 8 8 8 8 9 5 5 4 3 1 4 5 5 4 5 5 4 5 10 7 6 3 7 9 11 16 18 18 19 19 18 15 17 18 18 15 14 13 12
6 11 10 11 7 11 10 4 3 5 7 7 1 2 2 4 4 5 3 4 3 4 3 7 6 8 7 11 10 13 18 18 21 20 18 18 19 18 17 16 14 14 13
9 9 11 8 6 9 10 10 6 4 6 7 9 6 5 4 7 5 7 6 8 4 2 3 8 10 10 9 9 12 18 16 20 21 21 20 20 20 18 17 14 13 12
6 6 10 9 10 10 11 7 5 4 4 3 3 5 7 6 3 4 8 2 7 5 5 3 5 4 9 8 12 11 18 18 19 19 24 25 22 23 20 17 15 13 11
8 6 7 10 11 8 13 9 4 5 5 4 3 4 4 4 4 6 7 6 6 5 5 3 2 4 7 9 12 12 19 18 18 18 21 25 26 25 20 17 15 14 12
11 9 8 9 8 11 12 11 6 8 8 4 1 2 4 7 8 8 6 4 7 5 4 3 1 1 4 7 11 13 18 19 19 16 19 23 27 27 22 18 17 15 12
9 10 10 9 6 11 11 12 9 10 11 9 6 5 2 1 5 7 8 10 2 2 6 5 3 2 3 6 9 14 19 21 20 15 17 19 24 25 24 19 18 17 12
11 10 7 9 9 12 12 10 8 10 11 13 12 10 8 4 0 2 6 6 9 5 2 5 7 4 5 9 15 16 23 20 18 14 15 17 20 23 23 21 18 19 16
7 5 11 7 10 9 8 8 9 7 7 7 11 14 14 10 5 4 3 4 7 9 8 1 6 1 4 10 13 20 20 21 12 14 15 17 18 21 21 21 22 19 20
12 8 13 8 9 9 7 8 8 9 9 7 6 10 15 14 12 7 6 5 4 7 9 7 11 8 11 15 19 24 18 19 14 12 15 18 19 17 21 21 20 19 22
11 11 7 12 10 11 4 4 9 11 10 10 9 10 9 14 16 15 10 12 11 10 11 15 16 17 20 21 23 22 15 17 14 16 20 15 19 16 19 19 19 18 21
18 17 12 10 16 12 10 13 11 10 12 8 6 11 14 10 16 18 17 14 13 12 13 17 19 21 22 22 17 14 14 14 18 16 17 19 18 20 16 20 20 18 19
21 23 21 19 18 15 16 16 15 12 15 13 11 9 8 10 11 12 15 20 21 19 18 18 21 21 21 16 18 21 18 16 13 15 17 19 17 16 17 18 19 19 18
19 18 18 19 21 20 18 18 18 14 14 15 16 17 16 13 12 11 12 13 17 23 23 23 22 23 22 20 22 15 13 13 18 23 24 23 18 18 18 13 15 16 18
18 17 17 18 18 18 17 16 17 18 18 16 16 19 19 17 14 15 16 16 16 16 16 19 21 19 18 19 19 23 23 24 26 24 22 18 15 13 6 10 15 16 20
20 20 20 19 19 22 20 18 14 14 17 18 18 18 19 20 19 18 20 21 20 20 20 20 22 24 24 24 25 26 25 26 29 24 24 18 11 10 13 14 17 13 18
23 21 20 22 23 22 21 23 22 24 24 25 25 25 23 22 22 23 23 23 24 25 23 24 26 28 29 27 27 26 24 24 26 25 24 27 18 15 10 15 10 11 17
17 21 24 27 25 24 24 25 22 24 29 27 26 28 28 28 27 25 24 26 28 28 27 26 28 29 27 23 21 22 25 28 30 29 26 34 29 23 15 17 18 16 19
16 17 20 20 21 24 25 26 25 25 27 28 32 34 34 34 34 33 34 35 35 35 35 36 37 36 36 31 25 27 29 31 35 37 34 31 19 17 15 18 16 18 19
12 17 18 22 21 23 24 24 25 24 26 28 32 33 33 35 37 36 38 39 42 40 39 39 40 41 40 41 38 37 36 38 37 40 33 21 20 22 23 19 18 15 17
Wind_Direction
143 124 129 125 127 94 73 112 109 101 93 103 90 119 100 92 60 52 52 55 60 58 58 58 57 57 56 57 58 58 58 56 50 46 41 33 31 24 16 7 3 356 344
147 147 104 123 109 101 85 101 117 112 125 113 102 93 88 137 62 52 40 45 49 54 59 62 61 63 65 65 64 60 57 52 47 45 41 35 30 21 13 6 355 347 329
142 136 122 143 111 107 124 121 123 131 125 123 130 132 113 116 203 94 30 37 36 44 61 67 65 64 66 66 63 59 55 52 46 39 29 22 14 6 355 350 345 341 328
121 124 128 128 121 142 108 127 124 113 144 123 110 117 110 93 121 125 87 44 52 64 67 68 63 65 68 66 60 57 53 44 33 21 11 3 357 351 344 333 326 318 316
142 122 125 138 135 155 119 140 118 115 125 179 165 170 191 53 46 79 82 65 49 69 49 67 63 62 69 64 57 49 39 26 16 8 3 358 355 351 347 339 327 313 302
166 141 145 158 122 134 135 129 127 121 109 121 199 228 222 157 241 298 102 69 61 55 48 74 64 66 71 61 48 37 26 16 11 6 2 359 356 351 347 342 334 324 310
155 175 151 179 156 141 131 128 125 92 87 56 359 249 158 168 205 248 238 87 79 27 43 29 26 75 77 61 42 29 20 16 12 7 3 359 355 350 348 350 350 346 345
178 180 155 155 154 165 149 157 159 91 110 66 77 146 175 190 201 193 126 133 28 259 28 358 45 61 70 50 43 24 14 13 13 9 6 1 356 354 354 357 3 6 6
180 184 182 182 193 175 158 132 96 97 122 87 68 129 126 115 156 163 174 182 200 196 266 334 51 54 30 30 19 18 11 9 12 16 11 8 3 2 2 2 8 9 7
186 194 208 197 199 191 178 152 124 186 154 100 113 79 78 66 105 214 195 215 196 175 226 261 302 34 20 17 16 8 2 4 10 15 16 14 7 5 6 9 9 9 6
189 210 168 196 183 189 174 185 175 205 178 125 76 62 19 57 56 10 207 187 182 145 107 47 5 5 359 355 355 355 349 355 1 7 10 10 10 7 9 13 11 8 12
207 201 177 211 191 175 188 192 204 211 202 200 322 69 55 70 34 36 50 226 214 176 156 133 161 327 329 338 346 344 336 343 349 2 5 8 10 10 11 13 12 9 15
184 178 189 222 217 195 177 210 213 215 223 220 235 207 240 359 41 14 6 39 70 208 208 232 312 13 271 307 324 322 329 332 343 354 2 0 7 11 15 15 14 13 12
223 208 216 211 213 197 199 217 212 219 232 232 238 241 228 202 354 9 2 346 5 33 335 232 251 282 232 293 319 324 335 335 343 350 2 360 3 9 15 16 14 15 11
213 216 214 204 197 211 206 217 207 207 232 237 238 241 231 226 242 270 306 339 332 330 339 275 7 288 272 305 316 328 336 350 344 349 359 353 360 8 6 5 10 15 13
235 249 244 208 167 205 209 214 202 209 236 251 255 232 226 228 244 259 266 268 279 312 306 259 317 293 302 309 318 322 334 350 1 13 2 345 347 359 0 354 356 10 15
213 219 207 222 210 201 205 228 213 225 245 252 251 231 223 245 246 250 257 254 264 283 299 283 289 295 300 303 305 311 336 354 354 358 354 348 346 345 352 347 343 351 4
231 230 230 210 215 218 217 239 230 221 242 248 246 238 243 243 250 253 251 250 254 264 285 287 293 294 300 303 314 322 333 335 333 340 341 339 338 336 344 346 340 340 350
229 239 242 231 237 236 225 241 251 242 239 240 245 252 266 272 266 266 263 255 258 266 270 281 289 297 300 316 317 314 308 308 305 316 320 320 319 335 338 334 338 339 341
224 223 232 236 240 243 242 243 248 249 240 245 253 250 255 259 272 281 284 278 273 268 268 272 276 281 291 298 309 318 313 301 298 304 313 314 305 307 316 317 328 336 340
238 243 239 233 234 240 243 243 243 248 255 260 256 251 259 262 266 281 284 287 292 291 275 270 273 280 275 285 292 302 307 306 303 307 317 324 317 319 316 310 315 325 335
237 238 245 253 247 243 249 252 249 256 263 267 273 273 261 266 255 260 271 276 283 287 287 285 282 280 282 284 288 296 301 305 310 312 318 322 321 320 322 314 311 314 337
226 233 240 248 251 253 251 250 244 249 258 264 270 273 274 267 264 265 271 271 275 279 281 284 283 285 288 292 296 299 300 299 299 305 310 310 315 300 317 319 312 319 327
245 242 241 247 249 252 257 259 256 252 251 255 258 262 266 273 276 278 275 272 273 274 275 277 277 284 287 295 291 295 297 295 294 299 304 305 311 298 297 315 305 311 318
258 262 263 260 261 262 260 263 266 266 260 257 257 258 260 262 265 270 272 274 275 275 279 280 282 284 286 289 288 286 284 288 291 297 301 306 326 318 286 290 304 303 304
275 267 268 265 274 277 271 268 263 260 264 266 266 266 265 265 266 268 270 272 273 276 280 281 282 282 282 281 278 276 278 280 283 290 296 293 309 310 307 307 293 294 299